Weather History for Highgate, VT

Change the Weather History Date:

Tuesday, December 25, 2012

  Actual Average (KPBG) Record (KPBG)
Temperature  
Mean Temperature 10 °F 21 °F  
Max Temperature 17 °F 30 °F 59 °F (1964)
Min Temperature 2 °F 12 °F -20 °F (1980)
Degree Days  
Heating Degree Days 56 44  
Month to date heating degree days 983  
Since 1 July heating degree days 2617  
Moisture  
Dew Point 7 °F    
Average Humidity 83    
Maximum Humidity 92    
Minimum Humidity 66    
Precipitation  
Precipitation 0.00 in - 1.60 in (1978)
Month to date precipitation  
Year to date precipitation  
Sea Level Pressure  
Sea Level Pressure 30.19 in    
Wind  
Wind Speed 2 mph (North)    
Max Wind Speed 10 mph    
Max Gust Speed -    
Visibility 10 miles    
Events Snow    
T = Trace of Precipitation, MM = Missing Value Source: NWS Daily Summary

Daily Weather History Graph

Daily Weather History Graph

Search for Another Location

Airport:

Trip Planner

Search our weather history database for the weather conditions in past years. The results will help you decide how hot, cold, wet, or windy it might be!

Date:

Astronomy

Dec. 25, 2012 Rise Set
Actual Time 7:29 AM EST 4:16 PM EST
Civil Twilight 6:55 AM EST 4:50 PM EST
Nautical Twilight 6:18 AM EST 5:27 PM EST
Astronomical Twilight 5:42 AM EST 6:03 PM EST
Moon 2:24 PM EST (12/25) 4:57 AM EST (12/25)
Length of Visible Light 9h 54m
Length of Day
8h 47m
Waxing Gibbous, 93% of the Moon is Illuminated
Dec 25
Waxing Gibbous
Dec 28
Full
Jan 4
Last Quarter
Jan 11
New
Jan 18
First Quarter

Hourly Weather History & Observations

Time (EST) Temp. Windchill Dew Point Humidity Pressure Visibility Wind Dir Wind Speed Gust Speed Precip Events Conditions
12:15 AM 12.9 °F - 10.2 °F 89% 30.06 in 10.0 mi Calm Calm - N/A   Clear
12:35 AM 12.0 °F - 9.5 °F 90% 30.06 in 10.0 mi Calm Calm - N/A   Clear
12:55 AM 12.0 °F - 10.0 °F 92% 30.07 in 10.0 mi Calm Calm - N/A   Clear
1:15 AM 11.3 °F - 9.1 °F 91% 30.07 in 10.0 mi Calm Calm - N/A   Clear
1:35 AM 12.0 °F - 10.0 °F 92% 30.07 in 10.0 mi Calm Calm - N/A   Clear
1:55 AM 12.0 °F - 9.9 °F 91% 30.06 in 10.0 mi Calm Calm - N/A   Clear
2:15 AM 12.2 °F - 9.7 °F 90% 30.06 in 10.0 mi Calm Calm - N/A   Clear
2:35 AM 12.2 °F - 9.5 °F 89% 30.07 in 10.0 mi Calm Calm - N/A   Clear
2:55 AM 12.0 °F - 9.5 °F 90% 30.06 in 10.0 mi Calm Calm - N/A   Clear
3:15 AM 12.2 °F - 9.5 °F 89% 30.05 in 10.0 mi Calm Calm - N/A   Clear
3:35 AM 13.1 °F 7.1 °F 10.2 °F 88% 30.04 in 10.0 mi North 3.5 mph - N/A   Clear
3:55 AM 12.7 °F 6.7 °F 9.7 °F 88% 30.04 in 10.0 mi NNW 3.5 mph - N/A   Clear
4:15 AM 12.4 °F - 9.3 °F 88% 30.06 in 10.0 mi Calm Calm - N/A   Clear
4:35 AM 12.2 °F 4.3 °F 9.0 °F 87% 30.04 in 10.0 mi North 4.6 mph - N/A   Scattered Clouds
4:55 AM 13.1 °F 5.4 °F 9.9 °F 87% 30.04 in 10.0 mi North 4.6 mph - N/A   Mostly Cloudy
5:15 AM 13.1 °F 5.4 °F 10.0 °F 88% 30.04 in 10.0 mi NNE 4.6 mph - N/A   Mostly Cloudy
5:55 AM 13.8 °F - 10.4 °F 86% 30.05 in 10.0 mi Calm Calm - N/A   Scattered Clouds
6:15 AM 13.1 °F 5.4 °F 9.5 °F 86% 30.08 in 10.0 mi NW 4.6 mph - N/A   Mostly Cloudy
6:35 AM 13.3 °F 7.3 °F 9.5 °F 85% 30.10 in 10.0 mi NW 3.5 mph - N/A   Overcast
6:55 AM 13.5 °F 5.8 °F 9.3 °F 84% 30.10 in 10.0 mi NW 4.6 mph - N/A   Overcast
7:15 AM 13.1 °F 7.1 °F 8.6 °F 82% 30.12 in 10.0 mi NNW 3.5 mph - N/A   Overcast
7:35 AM 13.1 °F 5.4 °F 8.4 °F 82% 30.12 in 10.0 mi North 4.6 mph - N/A   Overcast
7:55 AM 12.9 °F 2.6 °F 7.9 °F 80% 30.13 in 10.0 mi North 6.9 mph - N/A   Overcast
8:15 AM 13.1 °F 1.8 °F 7.7 °F 79% 30.14 in 10.0 mi North 8.1 mph - N/A   Overcast
8:35 AM 13.1 °F 2.8 °F 7.7 °F 79% 30.15 in 10.0 mi NNW 6.9 mph - N/A   Overcast
8:55 AM 13.1 °F 0.9 °F 7.7 °F 79% 30.16 in 10.0 mi NNW 9.2 mph - N/A   Overcast
9:15 AM 13.5 °F 2.2 °F 8.1 °F 79% 30.17 in 10.0 mi North 8.1 mph - N/A   Overcast
9:35 AM 14.5 °F 3.6 °F 8.8 °F 78% 30.18 in 10.0 mi North 8.1 mph - N/A   Overcast
9:55 AM 14.5 °F 5.7 °F 8.2 °F 76% 30.19 in 10.0 mi NNW 5.8 mph - N/A   Overcast
10:15 AM 14.5 °F 5.7 °F 8.1 °F 75% 30.20 in 10.0 mi North 5.8 mph - N/A   Overcast
10:35 AM 14.5 °F 4.6 °F 7.9 °F 75% 30.20 in 10.0 mi NNW 6.9 mph - N/A   Overcast
10:55 AM 14.5 °F 7.1 °F 7.7 °F 74% 30.19 in 10.0 mi North 4.6 mph - N/A   Overcast
11:15 AM 14.5 °F 7.1 °F 7.5 °F 74% 30.19 in 10.0 mi NNW 4.6 mph - N/A   Overcast
11:35 AM 16.0 °F 7.4 °F 8.2 °F 72% 30.19 in 10.0 mi NNW 5.8 mph - N/A   Overcast
11:55 AM 15.8 °F 7.2 °F 7.9 °F 71% 30.18 in 10.0 mi NNW 5.8 mph - N/A   Overcast
12:15 PM 15.4 °F 6.8 °F 7.7 °F 71% 30.18 in 10.0 mi NNW 5.8 mph - N/A   Scattered Clouds
12:35 PM 15.3 °F 4.4 °F 7.5 °F 71% 30.18 in 10.0 mi North 8.1 mph - N/A   Mostly Cloudy
12:55 PM 17.1 °F 5.0 °F 8.2 °F 68% 30.18 in 10.0 mi North 10.4 mph - N/A   Overcast
1:15 PM 17.1 °F 6.6 °F 7.5 °F 66% 30.19 in 10.0 mi North 8.1 mph - N/A   Mostly Cloudy
1:35 PM 17.1 °F 7.6 °F 7.3 °F 66% 30.19 in 10.0 mi North 6.9 mph - N/A   Overcast
1:55 PM 16.9 °F 7.4 °F 7.3 °F 66% 30.20 in 10.0 mi NNW 6.9 mph - N/A   Mostly Cloudy
2:35 PM 14.5 °F 7.1 °F 9.5 °F 80% 30.22 in 1.5 mi NW 4.6 mph - N/A Snow Light Snow
2:55 PM 14.7 °F 9.0 °F 10.0 °F 82% 30.23 in 3.0 mi North 3.5 mph - N/A Snow Light Snow
3:15 PM 17.1 °F 10.0 °F 10.4 °F 75% 30.23 in 10.0 mi WNW 4.6 mph - N/A   Overcast
3:35 PM 17.1 °F - 10.2 °F 75% 30.24 in 10.0 mi Calm Calm - N/A   Overcast
3:55 PM 15.6 °F - 9.3 °F 76% 30.24 in 10.0 mi Calm Calm - N/A   Overcast
4:15 PM 14.5 °F - 9.0 °F 79% 30.25 in 10.0 mi Calm Calm - N/A   Mostly Cloudy
4:35 PM 13.5 °F - 8.8 °F 82% 30.27 in 10.0 mi Calm Calm - N/A   Scattered Clouds
4:55 PM 12.0 °F 5.9 °F 8.2 °F 85% 30.27 in 10.0 mi NE 3.5 mph - N/A   Clear
5:15 PM 10.4 °F 4.0 °F 7.0 °F 86% 30.27 in 10.0 mi ENE 3.5 mph - N/A   Clear
5:55 PM 9.5 °F - 6.8 °F 89% 30.28 in 10.0 mi Calm Calm - N/A   Clear
6:15 PM 9.5 °F - 7.0 °F 90% 30.29 in 10.0 mi Calm Calm - N/A   Clear
6:35 PM 9.3 °F - 6.6 °F 89% 30.30 in 10.0 mi Calm Calm - N/A   Clear
6:55 PM 6.8 °F - 4.3 °F 89% 30.31 in 10.0 mi Calm Calm - N/A   Clear
7:15 PM 7.0 °F - 4.3 °F 89% 30.33 in 10.0 mi Calm Calm - N/A   Clear
7:35 PM 7.2 °F 0.3 °F 4.6 °F 89% 30.33 in 10.0 mi SE 3.5 mph - N/A   Clear
7:55 PM 6.8 °F - 4.1 °F 89% 30.33 in 10.0 mi Calm Calm - N/A   Clear
8:15 PM 6.8 °F - 4.1 °F 89% 30.32 in 10.0 mi Calm Calm - N/A   Clear
8:35 PM 6.8 °F - 3.7 °F 87% 30.32 in 10.0 mi Calm Calm - N/A   Clear
8:55 PM 6.8 °F -0.1 °F 4.1 °F 89% 30.33 in 10.0 mi SE 3.5 mph - N/A   Clear
9:15 PM 6.8 °F -0.1 °F 3.9 °F 88% 30.33 in 10.0 mi SSE 3.5 mph - N/A   Clear
9:35 PM 5.9 °F - 2.7 °F 87% 30.34 in 10.0 mi Calm Calm - N/A   Clear
9:55 PM 6.8 °F -0.1 °F 3.6 °F 87% 30.34 in 10.0 mi SE 3.5 mph - N/A   Clear
10:15 PM 5.9 °F -1.1 °F 2.7 °F 87% 30.35 in 10.0 mi SSE 3.5 mph - N/A   Clear
10:35 PM 6.4 °F - 3.6 °F 88% 30.35 in 10.0 mi Calm Calm - N/A   Clear
11:15 PM 4.5 °F - 1.2 °F 86% 30.37 in 10.0 mi Calm Calm - N/A   Clear
11:35 PM 2.5 °F - -0.8 °F 86% 30.35 in 10.0 mi Calm Calm - N/A   Clear
11:55 PM 4.3 °F -2.9 °F 1.0 °F 86% 30.36 in 10.0 mi SE 3.5 mph - N/A   Clear